Port Hope, MI

5:17 AM EDT on October 18, 2017 (GMT -0400)
Port Hope

Weather History for KP58 - December, 2013

Change the Weather History Date:

Friday, December 27, 2013

  Actual Average Record
Temperature  
Mean Temperature 30 °F -  
Max Temperature 37 °F 31 °F 54 °F (2008)
Min Temperature 23 °F 21 °F 10 °F (1996)
Degree Days  
Heating Degree Days 36    
Moisture  
Dew Point 20 °F    
Average Humidity 78    
Maximum Humidity 88    
Minimum Humidity 68    
Precipitation  
Precipitation 0.00 in - - ()
Sea Level Pressure  
Sea Level Pressure 30.18 in    
Wind  
Wind Speed 4 mph (SW)    
Max Wind Speed 14 mph    
Max Gust Speed 26 mph    
Averages and records for this station are not official NWS values.
T = Trace of Precipitation, MM = Missing Value Source: NWS Daily Summary

Daily Weather History Graph

Daily Weather History Graph

Search for Another Location

Airport or City:

Trip Planner

Search our weather history database for the weather conditions in past years. The results will help you decide how hot, cold, wet, or windy it might be!

Date:

Astronomy

Dec. 27, 2013 Rise Set
Actual Time 8:05 AM EST 4:59 PM EST
Civil Twilight 7:32 AM EST 5:32 PM EST
Nautical Twilight 6:55 AM EST 6:09 PM EST
Astronomical Twilight 6:20 AM EST 6:44 PM EST
Moon 2:28 AM EST (12/27) 1:15 PM EST (12/27)
Length of Visible Light 10h 00m
Length of Day
8h 54m
Waning Crescent, 28% of the Moon is Illuminated
Dec 27
Waning Crescent
Jan 1
New
Jan 7
First Quarter
Jan 15
Full
Jan 24
Last Quarter

Hourly Weather History & Observations

Time (EST) Temp. Windchill Dew Point Humidity Pressure Visibility Wind Dir Wind Speed Gust Speed Precip Events Conditions
12:51 AM 23.0 °F - 18.0 °F 81% 30.22 in - Calm Calm - N/A   Unknown
1:51 AM 23.0 °F 18.4 °F 19.0 °F 85% 30.22 in - SSW 3.5 mph - N/A   Unknown
2:51 AM 24.1 °F 19.7 °F 19.0 °F 81% 30.22 in - WSW 3.5 mph - N/A   Unknown
3:51 AM 24.1 °F 18.2 °F 19.9 °F 84% 30.22 in - WSW 4.6 mph - N/A   Unknown
4:51 AM 24.1 °F - 19.9 °F 84% 30.22 in - Calm Calm - N/A   Unknown
5:51 AM 25.0 °F 19.3 °F 19.9 °F 81% 30.23 in - West 4.6 mph - N/A   Unknown
6:51 AM 24.1 °F 16.0 °F 15.1 °F 69% 30.26 in - West 6.9 mph - N/A   Unknown
7:51 AM 24.1 °F 17.0 °F 16.0 °F 71% 30.28 in - Variable 5.8 mph - N/A   Unknown
8:51 AM 23.0 °F 18.4 °F 15.1 °F 72% 30.29 in - West 3.5 mph - N/A   Unknown
9:51 AM 23.0 °F 17.0 °F 14.0 °F 68% 30.30 in - WSW 4.6 mph - N/A   Unknown
10:51 AM 23.0 °F 18.4 °F 15.1 °F 72% 30.30 in - Variable 3.5 mph - N/A   Unknown
11:51 AM 23.0 °F 13.9 °F 15.1 °F 72% 30.29 in - WSW 8.1 mph - N/A   Unknown
12:51 PM 24.1 °F 18.2 °F 16.0 °F 71% 30.26 in - Variable 4.6 mph - N/A   Unknown
1:51 PM 24.1 °F 14.4 °F 18.0 °F 77% 30.24 in - SW 9.2 mph - N/A   Unknown
2:51 PM 26.1 °F 20.5 °F 19.0 °F 75% 30.22 in - Variable 4.6 mph - N/A   Unknown
3:51 PM 26.1 °F 21.9 °F 21.0 °F 81% 30.20 in - SW 3.5 mph - N/A   Unknown
4:51 PM 27.0 °F 21.6 °F 21.9 °F 81% 30.18 in - SSE 4.6 mph - N/A   Unknown
5:51 PM 28.0 °F 24.2 °F 24.1 °F 85% 30.14 in - Variable 3.5 mph - N/A   Unknown
6:51 PM 28.0 °F 21.7 °F 25.0 °F 88% 30.12 in - South 5.8 mph - N/A   Unknown
7:51 PM 30.0 °F 22.4 °F 25.0 °F 82% 30.06 in - South 8.1 mph - N/A   Unknown
8:51 PM 33.1 °F 24.4 °F 27.0 °F 78% 30.01 in - SSW 11.5 mph 25.3 mph N/A   Unknown
9:51 PM 34.0 °F 26.0 °F 28.0 °F 79% 29.98 in - SSW 10.4 mph 21.9 mph N/A   Unknown
10:51 PM 36.0 °F 28.5 °F 28.9 °F 76% 29.94 in - SW 10.4 mph 17.3 mph N/A   Unknown
11:51 PM 37.9 °F 29.6 °F 28.9 °F 70% 29.94 in - SW 13.8 mph 26.5 mph N/A   Unknown